RH
52 54 56 56 60 62 57 63 67 56 59 61 65 61 61 60 59 62 63 58 62 74 69 56 62 63 46 47 47 42 52 69 55 42 36 40 55 60 50 48 48 47 46
51 59 57 57 56 56 60 58 61 63 57 62 62 64 62 60 61 62 61 54 59 63 58 60 58 48 62 60 51 62 62 76 59 68 58 44 54 53 57 61 50 38 38
53 55 57 56 57 55 59 59 63 65 64 54 60 66 66 61 63 63 63 61 59 59 57 59 58 58 64 52 54 49 43 47 54 54 51 43 43 43 53 60 61 56 43
49 55 60 58 57 55 57 64 62 66 67 64 60 62 61 60 60 59 57 64 61 55 58 58 58 60 63 64 58 62 59 56 57 52 49 46 44 51 86 87 51 49 45
53 56 60 61 59 61 64 67 67 67 66 65 65 62 60 56 48 58 56 59 62 60 58 58 59 64 76 77 58 63 70 64 55 53 47 46 48 72 88 80 64 45 79
58 58 61 67 68 67 68 70 73 71 70 70 66 65 64 51 65 76 67 54 59 60 61 60 59 69 76 90 93 96 92 86 88 96 81 85 79 87 76 75 80 90 86
66 65 64 69 71 72 70 72 73 73 70 72 69 67 67 67 79 84 83 52 52 56 60 59 54 43 70 61 88 84 84 85 91 84 90 84 89 90 88 83 82 86 88
67 68 67 70 72 71 72 72 73 70 71 69 67 68 69 63 84 90 90 68 60 60 60 60 65 67 66 66 62 60 61 60 63 53 62 62 61 64 70 69 75 78 64
66 69 68 67 69 70 73 73 69 69 69 66 63 68 71 69 89 93 91 64 57 61 62 67 68 66 84 81 71 71 71 70 71 86 86 84 85 86 77 54 48 45 44
65 65 67 70 71 70 71 74 71 69 67 56 65 66 71 68 93 99 91 55 57 61 77 71 91 81 90 90 77 71 72 64 61 65 69 71 86 76 89 73 57 54 50
74 72 75 76 79 77 75 73 73 72 69 72 68 67 69 70 71 100 100 67 56 88 95 89 68 91 92 94 95 67 67 69 72 68 61 54 55 60 60 72 74 61 57
79 78 79 81 76 82 83 78 77 75 76 76 75 68 59 85 99 99 100 99 97 92 84 78 78 93 92 94 88 82 91 90 61 60 62 59 59 61 63 71 74 71 67
84 83 85 92 88 97 94 92 80 80 62 66 57 77 99 99 99 100 100 99 98 98 71 77 91 93 94 89 96 94 98 66 66 67 63 62 58 59 67 71 72 78 81
65 72 76 86 91 96 94 94 94 94 86 78 98 99 99 98 94 97 98 98 97 80 82 58 71 82 97 86 77 83 64 64 68 65 66 63 67 68 81 82 91 84 97
62 73 82 79 89 93 96 96 96 89 91 93 99 94 94 92 97 98 99 98 83 67 66 51 52 54 55 56 56 59 63 66 70 67 68 76 76 90 94 97 97 98 98
60 57 57 62 74 71 64 71 99 99 100 100 100 84 70 88 100 100 100 95 100 99 61 50 50 55 60 55 58 66 63 73 68 66 69 74 78 92 93 97 99 99 98
45 44 43 60 48 55 67 56 58 85 100 100 100 100 100 95 100 100 96 100 100 93 51 45 45 47 50 54 58 63 63 64 75 68 68 78 87 93 97 89 96 97 96
48 84 40 38 41 46 59 61 52 52 56 61 91 91 98 100 98 97 100 95 76 75 49 42 43 44 48 53 63 62 60 64 67 71 72 77 78 76 88 89 85 91 97
42 32 39 40 40 54 52 56 61 62 56 53 58 81 87 99 100 100 100 55 48 44 43 40 41 40 44 50 54 59 64 62 67 66 68 68 67 66 76 85 84 94 92
40 57 56 33 41 62 59 59 62 73 60 51 53 53 63 75 69 70 70 58 44 41 39 38 39 42 46 54 57 60 68 72 65 62 62 66 70 69 75 82 81 83 84
32 29 48 34 31 38 47 56 53 64 59 48 48 54 77 56 55 55 55 47 42 36 36 37 37 44 47 49 52 52 53 53 54 58 60 65 71 68 71 76 79 79 79
34 30 27 27 38 45 42 55 50 52 68 63 46 54 85 49 43 46 44 38 38 36 29 36 34 35 36 39 42 44 44 44 46 48 49 55 64 64 62 64 67 70 71
35 32 33 34 41 61 59 50 57 58 56 69 53 45 58 48 38 37 38 36 36 33 32 32 34 32 33 36 37 38 39 38 41 43 46 48 50 46 44 44 45 48 48
34 34 41 55 53 58 58 56 70 76 62 76 61 42 49 45 40 37 34 34 35 31 31 33 33 31 32 36 35 34 35 36 38 43 44 40 39 51 37 38 39 40 41
32 42 49 61 54 60 58 54 60 75 64 66 73 56 42 41 38 35 32 33 34 32 32 32 32 34 36 37 34 34 60 75 49 54 38 37 36 40 32 29 31 31 32
35 44 45 57 46 53 71 45 59 64 60 64 70 64 52 40 38 40 39 34 31 29 31 30 31 35 35 34 36 53 92 88 63 94 41 36 36 35 32 34 36 30 34
Wind_Speed
18 17 16 16 17 15 14 14 13 13 12 11 11 11 12 12 10 10 9 9 9 10 9 8 9 9 7 5 7 7 7 5 9 9 6 5 6 7 8 7 7 8 7
17 16 17 15 15 16 15 15 14 14 14 14 13 13 13 13 12 11 12 11 11 11 11 10 10 7 9 9 8 10 8 6 8 11 9 9 9 7 9 9 8 8 7
16 16 16 16 16 16 15 15 15 15 15 15 15 14 14 14 13 13 12 12 12 12 11 10 11 10 9 9 10 9 9 9 10 11 10 9 9 7 8 10 9 9 8
17 16 16 17 16 15 14 14 15 15 15 16 16 15 15 14 14 14 13 13 13 11 10 11 11 11 11 11 11 11 10 10 10 11 11 10 10 7 4 8 9 10 9
15 15 15 14 14 14 14 14 14 14 14 15 15 15 15 14 12 15 14 13 12 12 12 11 12 13 10 9 10 10 9 9 11 11 11 10 10 8 7 8 8 8 5
13 14 14 14 13 14 13 14 13 14 14 14 15 15 16 13 11 10 11 12 13 13 12 12 13 12 11 12 10 7 10 13 13 10 10 11 10 8 8 8 5 6 8
12 12 12 13 13 13 12 13 14 14 13 14 14 15 15 15 10 9 11 14 13 12 13 13 13 12 4 10 8 6 8 9 10 11 10 10 9 8 7 8 8 8 9
9 9 10 11 12 12 12 13 13 12 13 13 13 14 14 13 9 11 10 13 14 15 15 14 14 12 8 6 9 10 10 10 10 9 10 10 11 9 9 10 10 9 11
9 9 9 9 11 12 14 14 13 12 12 13 13 13 14 14 10 12 10 13 14 14 13 11 10 9 5 5 8 9 9 9 6 11 10 10 11 8 9 10 11 10 11
6 7 6 7 8 11 12 13 12 12 12 10 12 13 13 13 11 13 11 10 12 9 6 9 5 8 8 7 7 9 10 10 7 8 9 11 11 10 13 10 9 10 10
6 7 5 3 3 8 9 10 11 12 11 11 11 10 11 10 10 11 13 11 9 5 5 6 7 13 8 6 7 9 9 7 8 8 9 8 7 8 6 8 9 10 10
10 6 5 7 6 6 7 10 13 12 12 11 10 9 4 7 16 5 5 9 3 4 4 5 3 9 7 6 7 8 4 6 9 7 7 7 7 5 5 3 6 9 9
9 11 8 5 9 5 4 16 11 12 12 13 13 8 7 5 6 11 11 8 13 7 7 2 11 5 4 9 13 10 8 8 7 7 7 6 5 6 7 8 6 9 10
6 3 3 3 5 9 8 16 10 9 10 7 6 7 8 7 8 10 10 8 15 11 7 6 1 2 5 6 6 9 8 5 5 6 6 5 5 4 4 5 6 5 4
4 2 4 3 3 1 2 1 6 9 7 5 9 11 11 11 9 13 12 10 9 8 4 5 6 6 5 6 6 5 4 5 6 5 5 5 6 5 4 3 4 4 3
5 5 4 3 2 3 5 3 2 7 9 12 8 7 9 6 10 12 16 17 12 10 7 6 6 5 6 5 4 5 4 4 5 4 5 4 4 4 3 2 1 2 2
7 4 3 5 5 6 6 7 6 4 4 5 6 6 11 7 10 13 17 10 12 9 6 6 6 6 5 5 4 5 4 4 4 5 4 3 3 3 3 1 1 0 1
8 1 6 6 6 6 6 7 7 8 8 8 4 5 5 6 11 16 18 16 6 4 6 6 6 6 5 5 5 5 4 5 5 5 4 4 4 3 2 0 0 1 2
9 8 7 7 6 7 7 7 8 10 10 9 5 4 9 12 9 11 11 9 9 8 8 8 6 6 5 5 4 4 4 4 5 5 5 4 4 3 1 1 2 2 4
10 11 8 9 7 8 8 9 8 9 11 9 8 9 9 8 10 10 9 10 8 8 7 8 6 5 5 4 4 5 4 6 7 6 5 4 3 2 2 3 4 4 4
9 10 12 11 11 10 10 10 10 9 11 10 9 9 13 13 13 12 11 11 10 9 8 7 6 5 5 4 5 5 7 6 6 5 5 4 3 4 4 4 4 4 5
10 10 12 13 11 11 11 10 11 10 11 11 10 11 17 13 12 12 13 12 10 9 8 7 6 7 7 5 5 5 6 6 5 5 5 6 5 4 5 5 6 6 6
12 12 12 11 9 11 11 11 9 10 11 10 12 11 13 14 12 12 12 11 10 10 9 7 7 7 6 6 5 5 6 5 5 5 6 5 7 7 7 6 7 7 8
13 12 12 9 11 11 11 9 9 11 11 10 12 12 14 13 13 13 11 10 10 10 9 9 9 10 8 7 6 6 5 5 5 6 7 6 5 4 5 5 6 6 6
12 10 11 10 10 10 11 11 11 10 11 11 11 12 12 11 14 13 12 11 11 11 12 10 10 11 13 12 10 8 8 9 6 5 7 7 6 7 5 6 5 7 7
12 10 11 8 11 10 10 11 11 10 10 10 11 11 11 11 10 10 10 12 12 12 13 10 12 14 15 14 14 9 13 12 11 9 7 7 7 7 6 7 8 6 8
Wind_Direction
200 198 200 198 199 206 203 198 202 216 202 214 208 210 216 219 220 221 237 251 238 241 249 253 229 237 249 249 245 254 251 246 268 263 271 266 229 265 286 269 261 246 224
198 201 201 200 200 198 208 207 205 206 211 211 214 218 221 224 226 223 228 238 232 241 242 239 241 239 236 255 262 258 269 270 256 261 279 286 262 260 272 267 267 265 264
197 199 202 201 201 204 200 206 203 207 210 212 215 219 223 228 228 227 232 240 244 237 236 233 244 248 249 265 272 285 265 241 228 246 263 261 270 259 253 242 250 249 256
195 199 200 203 202 205 202 203 204 206 209 213 215 218 222 224 228 228 227 233 235 233 238 250 252 254 253 257 256 260 258 266 263 258 262 261 251 243 204 267 261 220 226
198 200 204 203 204 203 200 201 207 208 214 216 216 220 222 226 226 222 230 229 234 241 247 248 244 250 258 275 276 267 269 263 265 264 260 260 262 262 224 232 246 272 341
200 205 200 198 200 202 201 200 202 208 214 216 220 218 221 229 224 214 238 236 239 248 255 257 260 246 231 224 229 257 281 271 262 264 273 274 278 297 280 291 266 258 264
202 207 206 200 201 202 203 202 204 208 210 216 217 220 226 230 224 205 208 242 258 257 261 267 269 264 228 263 198 198 242 244 248 282 278 269 281 281 294 284 283 265 254
195 204 207 206 208 206 206 210 210 209 211 214 219 222 227 232 209 198 201 240 253 259 263 265 262 271 286 258 260 262 262 252 239 241 258 276 282 304 290 282 285 276 265
189 194 197 201 214 213 212 212 214 213 212 213 217 222 228 236 199 194 198 241 248 250 252 260 266 260 126 116 257 268 271 273 262 251 246 259 264 269 268 280 264 262 261
168 169 181 191 220 226 225 217 211 217 221 218 217 220 225 235 194 187 195 238 239 242 258 252 177 274 130 149 254 270 267 272 264 277 241 237 227 238 219 241 268 262 264
92 106 101 131 217 251 242 236 226 214 222 214 222 223 227 227 233 182 183 235 249 219 228 245 260 184 179 200 239 269 278 322 287 267 264 260 247 234 250 229 245 264 270
128 114 103 82 35 316 260 243 235 227 211 216 217 219 190 39 33 21 271 246 273 219 242 254 200 151 164 207 229 256 264 275 260 277 266 275 267 274 269 278 268 268 263
196 186 178 180 141 138 336 289 234 212 223 206 198 162 117 104 95 109 93 24 321 293 262 63 97 138 189 234 234 249 244 242 264 266 268 272 297 302 294 274 265 264 264
235 255 262 244 145 127 179 232 247 217 222 218 114 139 136 156 186 163 156 172 149 268 232 223 270 303 297 304 195 204 236 270 279 268 274 288 296 286 295 281 267 253 236
245 283 307 309 311 123 163 41 301 272 257 173 166 171 164 179 204 186 175 161 125 211 245 230 227 230 228 236 227 240 246 255 253 258 269 284 289 285 283 270 265 267 200
214 228 229 253 271 267 276 197 107 327 349 342 331 193 204 260 170 189 116 103 110 151 203 208 223 228 228 239 241 231 242 244 267 277 267 265 297 299 311 295 269 247 175
255 267 253 242 260 271 269 268 257 187 323 344 347 346 318 230 170 129 117 107 142 169 220 206 231 238 224 222 232 250 247 249 278 264 265 281 278 303 306 323 15 22 110
234 279 261 250 254 245 253 267 263 256 241 219 132 14 49 145 148 136 132 140 180 213 250 222 222 229 213 203 216 234 224 240 243 250 238 236 231 247 239 297 99 158 141
222 239 216 250 247 269 265 227 236 253 253 259 161 169 92 64 86 120 160 199 197 202 206 223 220 226 216 204 201 232 233 229 245 239 236 252 261 254 171 141 128 136 151
228 234 270 234 222 238 234 245 233 237 249 232 207 203 151 143 171 175 192 221 226 220 211 220 218 223 227 211 197 217 202 212 223 223 229 228 227 251 177 167 159 163 155
249 253 213 227 247 223 233 235 234 222 241 225 212 189 170 182 183 190 195 213 219 222 215 216 211 221 227 209 232 208 223 228 211 213 214 202 187 190 185 161 161 157 157
249 253 257 241 224 240 233 224 239 221 219 240 221 153 166 209 193 199 203 209 213 225 217 206 222 216 226 223 214 226 235 237 223 219 221 149 195 198 193 186 175 175 175
252 257 252 246 235 228 226 233 227 234 220 216 226 178 189 211 208 203 205 209 207 213 216 211 213 233 220 220 225 225 242 225 213 214 208 171 192 192 194 187 176 177 186
249 253 254 235 230 224 230 216 231 224 228 211 227 217 185 208 213 209 215 210 213 211 211 211 220 226 222 218 217 221 216 209 181 184 200 185 179 180 187 183 186 168 163
237 230 234 226 227 220 226 225 196 219 219 214 212 232 221 204 211 209 207 218 219 215 212 215 220 219 226 218 238 216 122 118 220 161 201 185 177 201 192 200 181 188 175
227 221 240 219 233 230 231 231 229 201 211 216 208 227 222 214 212 214 219 219 216 210 217 217 225 230 228 215 217 189 150 170 203 236 226 196 192 210 208 228 193 217 189